Showing default

QIANFAN-62, 62792

Orbit data source: Space-Track

QIANFAN-62, 62792 is a Chinese payload satellite in LEO that was launched on Thu, 23 Jan 2025 UTC via a CHANG ZHENG 6A launch vehicle from the Taiyaun Space Center, China (TSC). Payload-class satellites include a variety of spacecraft equipped with specific instruments for various scientific and technological missions. These include communications satellites like Starlink; space stations such as the ISS; scientific satellites like the Hubble; Earth observation satellites from companies like Planet Labs, Umbra, and HawkEye 360; GPS; miniature CubeSats for education and research; and military/defense satellites.

Loading next visibility...
Identifier
62792, 2025-016H
Orbit
LEO
Country
Flag of CNCN / PRC
Related business
Manufacturer
SECM
Mission
Operational Commercial Communications
Bus & Motor
QIANFAN, Unknown motor
Mass
267 kg wet, ~267 kg dry
Launch date (UTC)
2025-01-23 (11 months ago)
Launch vehicle
CHANG ZHENG 6A
Launch site
Taiyaun Space Center, China (TSC)
Object type
Payload
Rocket body
Debris
Shape & HBR
Box + 1 Pan, 1.2 m
Radar Cross Section
13.200 m², Large (>1 m²)

Expand to show TLE details & history
Last TLE update: 7 hours ago

TLE from 7 hours ago
0 QIANFAN-62
1 62792U 25016H   25354.14929985  .00000144  00000-0  20439-3 0  9996
2 62792  88.9776 102.3428 0014695 325.6006  34.4192 13.50978867 48234
Epoch: 2025-12-20T03:34Z
TLE epoch observation values (Epoch: 2025-12-20T03:34:59.507Z)
Latitude
-0.00005°
Longitude
-40.38539°
Altitude
1,062.589 km
Speed
7.325 km/s
True Right ascension
06h 49m 22s
True Declination
0° 00' 00"
Sunlit
Object was in full shadow at epoch
Visualization orbit readout
Latitude
Unknown
Longitude
Unknown
Altitude
Unknown
Speed
Unknown
Apparent Right ascension
Unknown
Apparent Declination
Unknown
Sunlit
N/A
Visualization observer readout
Local Sidereal Time
09:53:42
Azimuth
Unknown
Elevation
Unknown
Doppler factor
Unknown
Orbital elements
Apogee altitude
1,076.649 km
Perigee altitude
1,054.772 km
Semi-major axis
7,443.847 km
Eccentricity
0.00147
Inclination
88.9776°
RAAN
102.3428°
Arg. of periapsis
325.6006°
True anomaly
34.51453°
Mean anomaly
34.4192°
Eccentric anomaly
34.46685°
Mean motion
3.37946 °/min
Orbital period
106.53 mins
BSTAR
0.00020439
Loading maneuver chart data...
Computing Atmospheric mass density...
Loading historical data...
Loading historical data...
Loading historical data...
Loading historical data...
Loading historical data...
Loading historical data...
Loading historical data...

Documentation

Showing up to 5 results
|